• In Austria
  • List of Countries
  • For 7 days
  • Water Temperature
  • Satellite Maps
  • Weather Map
  • News
  • Weather Widgets
  • user-avatar
    Login

    Hourly Weather Gabrovo

    Today, 18 December, Monday

    Time Temperature Precipitation Wind Pressure Humidity
    00:00 -2°C° 0 mm 2 mps 699 mmHg 85%
    01:00 -2°C° 0 mm 2 mps 699 mmHg 86%
    02:00 -2°C° 0 mm 2 mps 700 mmHg 86%
    03:00 -2°C° 0 mm 2 mps 700 mmHg 86%
    04:00 -1°C° 0 mm 1 mps 700 mmHg 86%
    05:00 -1°C° 0 mm 1 mps 700 mmHg 86%
    06:00 -1°C° 0 mm 1 mps 700 mmHg 86%
    07:00 -1°C° 0 mm 1 mps 700 mmHg 86%
    08:00 -1°C° 0 mm 1 mps 700 mmHg 86%
    09:00 0°C° 0 mm 1 mps 701 mmHg 82%
    10:00 +1°C° 0 mm 1 mps 701 mmHg 78%
    11:00 +2°C° 0 mm 1 mps 701 mmHg 74%
    12:00 +2°C° 0 mm 1 mps 701 mmHg 73%
    13:00 +2°C° 0 mm 1 mps 701 mmHg 73%
    14:00 +3°C° 0 mm 1 mps 701 mmHg 72%
    15:00 +2°C° 0.1 mm 1 mps 701 mmHg 75%
    16:00 +2°C° 0.1 mm 1 mps 701 mmHg 79%
    17:00 +1°C° 0.1 mm 1 mps 701 mmHg 82%
    18:00 +1°C° 0.2 mm 1 mps 701 mmHg 83%
    19:00 +1°C° 0.2 mm 1 mps 701 mmHg 84%
    20:00 0°C° 0.2 mm 1 mps 701 mmHg 85%
    21:00 -2°C° 0.3 mm 2 mps 702 mmHg 85%
    22:00 -2°C° 0.3 mm 2 mps 702 mmHg 85%
    23:00 -2°C° 0.3 mm 2 mps 702 mmHg 85%

    Tomorrow, 19 December, Tuesday

    Time Temperature Precipitation Wind Pressure Humidity
    00:00 -3°C° 0.4 mm 2 mps 702 mmHg 86%
    01:00 -3°C° 0.4 mm 2 mps 702 mmHg 86%
    02:00 -3°C° 0.4 mm 2 mps 703 mmHg 87%
    03:00 -4°C° 0.4 mm 2 mps 703 mmHg 87%
    04:00 -4°C° 0.4 mm 2 mps 703 mmHg 88%
    05:00 -4°C° 0.4 mm 2 mps 703 mmHg 88%
    06:00 -4°C° 0.3 mm 2 mps 704 mmHg 89%
    07:00 -4°C° 0.3 mm 2 mps 704 mmHg 89%
    08:00 -4°C° 0.3 mm 2 mps 705 mmHg 89%
    09:00 -4°C° 0.2 mm 2 mps 705 mmHg 88%
    10:00 -3°C° 0.2 mm 2 mps 706 mmHg 86%
    11:00 -3°C° 0.2 mm 2 mps 707 mmHg 84%
    12:00 -3°C° 0.1 mm 2 mps 707 mmHg 83%
    13:00 0°C° 0.1 mm 1 mps 707 mmHg 82%
    14:00 0°C° 0.1 mm 1 mps 707 mmHg 81%
    15:00 -1°C° 0 mm 1 mps 707 mmHg 83%
    16:00 -1°C° 0 mm 1 mps 707 mmHg 85%
    17:00 -2°C° 0 mm 1 mps 707 mmHg 87%
    18:00 -2°C° 0 mm 1 mps 707 mmHg 87%
    19:00 -2°C° 0 mm 1 mps 708 mmHg 88%
    20:00 -3°C° 0 mm 1 mps 708 mmHg 88%
    21:00 -3°C° 0 mm 1 mps 708 mmHg 88%
    22:00 -3°C° 0 mm 1 mps 708 mmHg 87%
    23:00 -3°C° 0 mm 1 mps 709 mmHg 87%

    Day after tomorrow, 20 December, Wednesday

    Time Temperature Precipitation Wind Pressure Humidity
    00:00 -3°C° 0 mm 1 mps 708 mmHg 87%
    01:00 -3°C° 0 mm 1 mps 708 mmHg 87%
    02:00 -3°C° 0 mm 1 mps 708 mmHg 87%
    03:00 -4°C° 0 mm 1 mps 708 mmHg 87%
    04:00 -4°C° 0 mm 1 mps 708 mmHg 86%
    05:00 -4°C° 0 mm 1 mps 708 mmHg 86%
    06:00 -4°C° 0 mm 1 mps 708 mmHg 85%
    07:00 -4°C° 0 mm 1 mps 709 mmHg 85%
    08:00 -6°C° 0 mm 1 mps 709 mmHg 84%
    09:00 -3°C° 0 mm 1 mps 709 mmHg 80%
    10:00 -2°C° 0 mm 1 mps 709 mmHg 76%
    11:00 -1°C° 0 mm 1 mps 710 mmHg 72%
    12:00 -1°C° 0 mm 1 mps 709 mmHg 71%
    13:00 0°C° 0 mm 1 mps 709 mmHg 70%
    14:00 0°C° 0 mm 1 mps 709 mmHg 69%
    15:00 -1°C° 0 mm 1 mps 709 mmHg 73%
    16:00 -2°C° 0 mm 1 mps 709 mmHg 77%
    17:00 -4°C° 0 mm 0 mps 708 mmHg 80%
    18:00 -3°C° 0 mm 1 mps 709 mmHg 81%
    19:00 -4°C° 0 mm 1 mps 709 mmHg 81%
    20:00 -4°C° 0 mm 1 mps 709 mmHg 82%
    21:00 -4°C° 0 mm 1 mps 709 mmHg 81%
    22:00 -4°C° 0 mm 1 mps 709 mmHg 81%
    23:00 -4°C° 0 mm 1 mps 709 mmHg 80%

    21 December, Thursday

    Time Temperature Precipitation Wind Pressure Humidity
    00:00 -4°C° 0 mm 1 mps 709 mmHg 80%
    01:00 -4°C° 0 mm 1 mps 709 mmHg 80%
    02:00 -6°C° 0 mm 1 mps 709 mmHg 80%
    03:00 -6°C° 0 mm 1 mps 709 mmHg 80%
    04:00 -6°C° 0 mm 1 mps 709 mmHg 80%
    05:00 -6°C° 0 mm 1 mps 709 mmHg 80%
    06:00 -6°C° 0 mm 1 mps 709 mmHg 80%
    07:00 -6°C° 0 mm 1 mps 709 mmHg 79%
    08:00 -6°C° 0 mm 1 mps 710 mmHg 79%
    09:00 -4°C° 0 mm 1 mps 710 mmHg 75%
    10:00 -3°C° 0 mm 1 mps 710 mmHg 71%
    11:00 -2°C° 0 mm 0 mps 710 mmHg 67%
    12:00 -1°C° 0 mm 1 mps 710 mmHg 65%
    13:00 -1°C° 0 mm 1 mps 710 mmHg 63%
    14:00 0°C° 0 mm 1 mps 709 mmHg 62%
    15:00 -1°C° 0 mm 1 mps 709 mmHg 67%
    16:00 -3°C° 0 mm 1 mps 709 mmHg 71%
    17:00 -4°C° 0 mm 1 mps 709 mmHg 76%
    18:00 -4°C° 0 mm 1 mps 709 mmHg 76%
    19:00 -4°C° 0 mm 1 mps 709 mmHg 76%
    20:00 -7°C° 0 mm 2 mps 709 mmHg 76%
    21:00 -7°C° 0 mm 2 mps 709 mmHg 74%
    22:00 -7°C° 0 mm 2 mps 709 mmHg 73%
    23:00 -7°C° 0 mm 2 mps 709 mmHg 71%

    22 December, Friday

    Time Temperature Precipitation Wind Pressure Humidity
    00:00 -7°C° 0 mm 2 mps 709 mmHg 70%
    01:00 -7°C° 0 mm 2 mps 708 mmHg 69%
    02:00 -7°C° 0 mm 2 mps 708 mmHg 68%
    03:00 -7°C° 0 mm 2 mps 708 mmHg 66%
    04:00 -7°C° 0 mm 2 mps 708 mmHg 65%
    05:00 -7°C° 0 mm 2 mps 707 mmHg 64%
    06:00 -7°C° 0 mm 2 mps 707 mmHg 63%
    07:00 -7°C° 0 mm 2 mps 707 mmHg 62%
    08:00 -6°C° 0 mm 2 mps 707 mmHg 62%
    09:00 -5°C° 0 mm 2 mps 707 mmHg 60%
    10:00 -1°C° 0 mm 1 mps 707 mmHg 58%
    11:00 +1°C° 0 mm 1 mps 707 mmHg 56%
    12:00 +2°C° 0 mm 1 mps 707 mmHg 58%
    13:00 +3°C° 0 mm 1 mps 706 mmHg 59%
    14:00 +3°C° 0 mm 1 mps 706 mmHg 61%
    15:00 +2°C° 0 mm 1 mps 705 mmHg 66%
    16:00 +1°C° 0 mm 1 mps 705 mmHg 71%
    17:00 0°C° 0 mm 1 mps 705 mmHg 76%
    18:00 -1°C° 0 mm 2 mps 705 mmHg 78%
    19:00 -1°C° 0 mm 2 mps 705 mmHg 80%
    20:00 -1°C° 0 mm 2 mps 705 mmHg 82%
    21:00 -1°C° 0 mm 3 mps 705 mmHg 82%
    22:00 -2°C° 0 mm 3 mps 705 mmHg 83%
    23:00 -2°C° 0 mm 3 mps 704 mmHg 84%

    23 December, Saturday

    Time Temperature Precipitation Wind Pressure Humidity
    00:00 -2°C° 0 mm 3 mps 704 mmHg 83%
    01:00 -2°C° 0 mm 3 mps 704 mmHg 82%
    02:00 -4°C° 0 mm 4 mps 704 mmHg 81%
    03:00 -4°C° 0 mm 3 mps 704 mmHg 81%
    04:00 -4°C° 0 mm 3 mps 704 mmHg 80%
    05:00 -5°C° 0 mm 3 mps 704 mmHg 80%
    06:00 -5°C° 0 mm 3 mps 704 mmHg 80%
    07:00 -5°C° 0 mm 3 mps 704 mmHg 79%
    08:00 -6°C° 0 mm 3 mps 703 mmHg 78%
    09:00 -4°C° 0 mm 3 mps 704 mmHg 72%
    10:00 -2°C° 0 mm 3 mps 704 mmHg 66%
    11:00 0°C° 0 mm 3 mps 704 mmHg 59%
    12:00 0°C° 0 mm 3 mps 703 mmHg 58%
    13:00 +1°C° 0 mm 3 mps 702 mmHg 57%
    14:00 +2°C° 0 mm 2 mps 701 mmHg 56%
    15:00 +1°C° 0 mm 2 mps 701 mmHg 61%
    16:00 -1°C° 0 mm 2 mps 700 mmHg 66%
    17:00 -2°C° 0 mm 2 mps 700 mmHg 70%
    18:00 -3°C° 0 mm 2 mps 700 mmHg 71%
    19:00 -3°C° 0 mm 2 mps 700 mmHg 71%
    20:00 -3°C° 0 mm 2 mps 699 mmHg 71%
    21:00 -3°C° 0 mm 2 mps 699 mmHg 72%
    22:00 -3°C° 0 mm 2 mps 699 mmHg 74%
    23:00 -3°C° 0 mm 2 mps 699 mmHg 75%
    Show more